Home > Weather > Nannestad > Past weeks

Flag for Norway Past Weather in Nannestad, Norway — Yesterday and Last 2 Weeks

Now
55 °F

Passing clouds.


Feels Like: 52 °F
Forecast: 53 / 67 °F
Wind: 12 mph from Southwest

Location: Oslo Gardermoen Airport

Current Time: Jun 27, 2016 at 4:18:18 AM

Latest Report: Jun 27, 2016 at 3:50 AM


Visibility: N/A

Pressure: 29.74 "Hg

Humidity: 88%

Dew Point: 52 °F

Location of NannestadLocation

Past Weather in Nannestad — Graph

°F

Nannestad Temperature Yesterday

Maximum temperature yesterday: 68 °F (at 9:20 AM)
Minimum temperature yesterday: 55 °F (at 3:20 AM)
Average temperature yesterday: 62 °F

High & Low Weather Summary for the Past Weeks

 TemperatureHumidityPressure
High75 °F (Jun 25, 3:20 PM)94% (Jun 15, 6:50 PM)30.15 "Hg (Jun 15, 6:50 PM)
Low43 °F (Jun 13, 3:50 AM)12% (Jun 14, 7:20 PM)29.56 "Hg (Jun 16, 5:20 PM)
Average60 °F66%29.82 "Hg
* Reported Jun 12 2:20 AM — Jun 27 2:50 AM, Nannestad, Weather by CustomWeather, © 2016

Note: Actual official high and low records may vary slightly from our data, if they occured in-between our weather recording intervals... More about our weather records

Advertising

Nannestad Weather History for the Previous 24 Hours

Scroll right to see more
 ConditionsComfort  
Time TempWeatherWind HumidityBarometerVisibility
2:50 AM
Mon, Jun 27
55 °FPartly cloudy.12 mph88%29.74 "HgN/A
2:20 AM55 °FPartly cloudy.10 mph88%29.74 "HgN/A
1:50 AM55 °FPassing clouds.9 mph88%29.74 "HgN/A
1:20 AM55 °FPassing clouds.10 mph88%29.77 "HgN/A
12:50 AM55 °FPassing clouds.10 mph88%29.77 "HgN/A
12:20 AM55 °FPassing clouds.10 mph94%29.77 "HgN/A
11:50 PM
Sun, Jun 26
55 °FPassing clouds.9 mph94%29.77 "HgN/A
11:20 PM57 °FPartly sunny.10 mph88%29.77 "HgN/A
10:50 PM57 °FBroken clouds.10 mph88%29.77 "HgN/A
10:20 PM57 °FPartly sunny.9 mph88%29.77 "HgN/A
9:50 PM57 °FPartly sunny.10 mph88%29.77 "HgN/A
9:20 PM57 °FPartly sunny.14 mph88%29.77 "HgN/A
8:50 PM57 °FScattered showers. Partly sunny.14 mph88%29.77 "HgN/A
8:20 PM57 °FScattered showers. More clouds than sun.13 mph94%29.74 "HgN/A
7:50 PM59 °FSprinkles. More clouds than sun.14 mph88%29.77 "HgN/A
7:20 PM59 °FSprinkles. More clouds than sun.13 mph94%29.77 "HgN/A
6:50 PM61 °FRain showers. More clouds than sun.12 mph94%29.74 "Hg4 mi
6:20 PM61 °FRain showers. Fog.14 mph94%29.74 "Hg3 mi
5:50 PM63 °FRain showers. More clouds than sun.16 mph88%29.74 "HgN/A
5:20 PM66 °FSprinkles. Broken clouds.9 mph83%29.74 "HgN/A
4:50 PM66 °FScattered showers. Broken clouds.10 mph88%29.74 "HgN/A
4:20 PM66 °FScattered showers. Broken clouds.9 mph88%29.74 "HgN/A
3:50 PM66 °FSprinkles. Partly sunny.3 mph83%29.74 "HgN/A
3:20 PM66 °FSprinkles. Partly sunny.5 mph88%29.74 "HgN/A
2:50 PM64 °FSprinkles. Broken clouds.5 mph94%29.77 "HgN/A
2:20 PM64 °FSprinkles. Broken clouds.6 mph88%29.77 "HgN/A
1:50 PM63 °FRain. More clouds than sun.2 mph94%29.77 "HgN/A
1:20 PM63 °FSprinkles. Overcast.5 mph94%29.80 "Hg4 mi
12:50 PM64 °FRain showers. More clouds than sun.6 mph88%29.80 "HgN/A
12:20 PM64 °FRain. More clouds than sun.2 mph83%29.80 "Hg3 mi
11:50 AM66 °FSprinkles. Cloudy.5 mph73%29.80 "HgN/A
11:20 AM66 °FPartly sunny.3 mph68%29.80 "HgN/A
10:50 AM66 °FScattered showers. Partly sunny.3 mph68%29.80 "HgN/A
10:20 AM68 °FScattered showers. Partly sunny.5 mph60%29.80 "HgN/A
9:50 AM68 °FScattered showers. Partly sunny.7 mph60%29.80 "HgN/A
9:20 AM68 °FScattered showers. Broken clouds.7 mph56%29.80 "HgN/A
8:50 AM66 °FScattered showers. Partly sunny.10 mph60%29.83 "HgN/A
8:20 AM64 °FScattered showers. Partly sunny.13 mph64%29.83 "HgN/A
7:50 AM64 °FScattered showers. Partly sunny.13 mph64%29.83 "HgN/A
7:20 AM63 °FScattered showers. Partly sunny.9 mph68%29.83 "HgN/A
6:50 AM63 °FScattered showers. Partly sunny.8 mph68%29.83 "HgN/A
6:20 AM61 °FScattered showers. Partly sunny.8 mph72%29.86 "HgN/A
5:50 AM59 °FSunny.7 mph77%29.86 "Hg10 mi
5:20 AM59 °FSunny.6 mph77%29.86 "Hg10 mi
4:50 AM59 °FClear.6 mph77%29.86 "Hg10 mi
4:20 AM57 °FClear.5 mph82%29.89 "Hg10 mi
Weather by CustomWeather, © 2016

See weather overviewHow to use our weather pages